This is the latest recevied weather packets stored in our database for station/object K4AGR-13. If no packets are shown the sender has not sent any weather packets the latest 10 day(s).
| Time | Temp. | Humidity | Pressure | Rain* | Wind** | Luminosity | Snow |
|---|---|---|---|---|---|---|---|
| 1777783638 | 12.22° C | 72% | 1017.5 hPa | 0 mm | - | 0 W/m² | - |
| 1777783336 | 12.22° C | 72% | 1017.6 hPa | 0 mm | - | 0 W/m² | - |
| 1777783032 | 12.78° C | 70% | 1017.4 hPa | 0 mm | - | 0 W/m² | - |
| 1777782730 | 12.78° C | 69% | 1017.3 hPa | 0 mm | - | 0 W/m² | - |
| 1777782426 | 12.78° C | 69% | 1017.4 hPa | 0 mm | - | 0 W/m² | - |
| 1777782122 | 12.78° C | 69% | 1017.3 hPa | 0 mm | - | 0 W/m² | - |
| 1777781818 | 12.78° C | 69% | 1017.2 hPa | 0 mm | - | 0 W/m² | - |
| 1777781516 | 12.78° C | 69% | 1017.2 hPa | 0 mm | - | 0 W/m² | - |
| 1777781214 | 12.78° C | 69% | 1017.1 hPa | 0 mm | - | 0 W/m² | - |
| 1777780911 | 12.78° C | 68% | 1017.4 hPa | 0 mm | - | 0 W/m² | - |
| 1777780607 | 12.78° C | 68% | 1017.1 hPa | 0 mm | - | 0 W/m² | - |
| 1777780305 | 12.78° C | 68% | 1017.3 hPa | 0 mm | - | 0 W/m² | - |
| 1777780003 | 13.33° C | 67% | 1017.2 hPa | 0 mm | - | 0 W/m² | - |
| 1777779699 | 13.89° C | 66% | 1017.2 hPa | 0 mm | - | 0 W/m² | - |
| 1777779396 | 13.89° C | 63% | 1016.9 hPa | 0 mm | - | 0 W/m² | - |
| 1777779094 | 13.33° C | 65% | 1016.9 hPa | 0 mm | - | 0 W/m² | - |
| 1777778792 | 13.89° C | 64% | 1017.1 hPa | 0 mm | - | 0 W/m² | - |
| 1777778491 | 13.89° C | 64% | 1017 hPa | 0 mm | - | 0 W/m² | - |
| 1777778188 | 13.89° C | 63% | 1016.9 hPa | 0 mm | - | 0 W/m² | - |
| 1777777885 | 14.44° C | 63% | 1016.8 hPa | 0 mm | - | 0 W/m² | - |
| 1777777581 | 14.44° C | 61% | 1016.8 hPa | 0 mm | - | 0 W/m² | - |
| 1777777278 | 15° C | 58% | 1016.7 hPa | 0 mm | - | 0 W/m² | - |
| 1777776975 | 15° C | 57% | 1016.8 hPa | 0 mm | - | 0 W/m² | - |
| 1777776673 | 15° C | 56% | 1016.7 hPa | 0 mm | - | 0 W/m² | - |
| 1777776369 | 15° C | 56% | 1016.7 hPa | 0 mm | - | 0 W/m² | - |
* Rain latest hour (hover to see other rain measurements)
** Current wind speed in m/s (hover to see current wind gust speed)